{"data":{"norad_id":52268,"epoch":"2026-05-25T02:52:34.304736Z","epoch_age_seconds":67779,"freshness":"FRESH","line1":"1 52268U 22041H   26145.11984149  .00000711  00000+0  62766-4 0  9996","line2":"2 52268  53.2148 125.9346 0001294  85.5036 274.6104 15.08835944225900","mean_motion":15.08835944,"eccentricity":0.0001294,"inclination_deg":53.2148,"raan_deg":125.9346,"arg_perigee_deg":85.5036,"mean_anomaly_deg":274.6104,"bstar":6.2766e-5,"rev_number":22590,"period_min":95.437811229661,"perigee_km":538.86061123467,"apogee_km":540.65096188783,"semimajor_km":6917.8927865612,"source":"CELESTRAK","updated_at":"2026-05-25T13:38:17.081250Z"}}